When you browse on this site, cookies collect data to enhance your experience and personalize the content and advertising you see.
Visit our Privacy Policy to learn more. By continuing to use the site, you agree to this use of cookies and data.
  • en France
  • Liste des pays
  • À 7 jours
  • Température de l'eau
  • Carte satellitaire
  • Carte météo
  • Widgets météo
  • user-avatar
    Se connecter

    Météo par heure à Perth

    Ce jour, 12 Décembre, Mercredi

    Heure Température Précipitation Vent Pression Humidité
    00:00 +18°C° 0 mm 3 m/s 759 mmHg 88%
    01:00 +18°C° 0 mm 3 m/s 759 mmHg 90%
    02:00 +17°C° 0 mm 2 m/s 759 mmHg 92%
    03:00 +17°C° 0 mm 2 m/s 759 mmHg 92%
    04:00 +17°C° 0 mm 2 m/s 760 mmHg 93%
    05:00 +17°C° 0 mm 2 m/s 760 mmHg 93%
    06:00 +18°C° 0 mm 2 m/s 760 mmHg 84%
    07:00 +20°C° 0 mm 3 m/s 760 mmHg 75%
    08:00 +23°C° 0 mm 2 m/s 761 mmHg 63%
    09:00 +24°C° 0 mm 2 m/s 761 mmHg 58%
    10:00 +25°C° 0 mm 2 m/s 761 mmHg 52%
    11:00 +27°C° 0 mm 2 m/s 761 mmHg 47%
    12:00 +28°C° 0 mm 3 m/s 760 mmHg 43%
    13:00 +29°C° 0 mm 4 m/s 760 mmHg 39%
    14:00 +30°C° 0 mm 4 m/s 760 mmHg 39%
    15:00 +30°C° 0 mm 4 m/s 760 mmHg 39%
    16:00 +30°C° 0 mm 5 m/s 760 mmHg 39%
    17:00 +29°C° 0 mm 5 m/s 759 mmHg 39%
    18:00 +28°C° 0 mm 5 m/s 760 mmHg 43%
    19:00 +26°C° 0 mm 5 m/s 760 mmHg 48%
    20:00 +23°C° 0 mm 4 m/s 760 mmHg 52%
    21:00 +23°C° 0 mm 4 m/s 760 mmHg 51%
    22:00 +23°C° 0 mm 4 m/s 761 mmHg 51%
    23:00 +22°C° 0 mm 4 m/s 761 mmHg 51%

    Demain, 13 Décembre, Jeudi

    Heure Température Précipitation Vent Pression Humidité
    00:00 +22°C° 0 mm 5 m/s 761 mmHg 52%
    01:00 +21°C° 0 mm 5 m/s 761 mmHg 54%
    02:00 +20°C° 0 mm 6 m/s 761 mmHg 56%
    03:00 +19°C° 0 mm 6 m/s 761 mmHg 57%
    04:00 +19°C° 0 mm 6 m/s 761 mmHg 58%
    05:00 +17°C° 0 mm 6 m/s 761 mmHg 59%
    06:00 +20°C° 0 mm 6 m/s 761 mmHg 55%
    07:00 +21°C° 0 mm 5 m/s 761 mmHg 51%
    08:00 +23°C° 0 mm 5 m/s 761 mmHg 47%
    09:00 +26°C° 0 mm 5 m/s 761 mmHg 41%
    10:00 +29°C° 0 mm 4 m/s 760 mmHg 36%
    11:00 +33°C° 0 mm 3 m/s 760 mmHg 31%
    12:00 +34°C° 0 mm 3 m/s 759 mmHg 29%
    13:00 +36°C° 0 mm 3 m/s 759 mmHg 26%
    14:00 +38°C° 0 mm 3 m/s 758 mmHg 24%
    15:00 +37°C° 0 mm 4 m/s 758 mmHg 24%
    16:00 +37°C° 0 mm 4 m/s 757 mmHg 25%
    17:00 +36°C° 0 mm 5 m/s 757 mmHg 25%
    18:00 +34°C° 0 mm 5 m/s 757 mmHg 28%
    19:00 +32°C° 0 mm 5 m/s 757 mmHg 30%
    20:00 +29°C° 0 mm 5 m/s 757 mmHg 32%
    21:00 +28°C° 0 mm 5 m/s 757 mmHg 32%
    22:00 +28°C° 0 mm 4 m/s 757 mmHg 32%
    23:00 +27°C° 0 mm 4 m/s 757 mmHg 32%

    Après-demain, 14 Décembre, Vendredi

    Heure Température Précipitation Vent Pression Humidité
    00:00 +28°C° 0 mm 4 m/s 756 mmHg 31%
    01:00 +28°C° 0 mm 4 m/s 756 mmHg 29%
    02:00 +28°C° 0 mm 4 m/s 755 mmHg 27%
    03:00 +28°C° 0 mm 4 m/s 755 mmHg 26%
    04:00 +28°C° 0 mm 4 m/s 755 mmHg 24%
    05:00 +27°C° 0 mm 4 m/s 756 mmHg 22%
    06:00 +29°C° 0 mm 4 m/s 756 mmHg 21%
    07:00 +30°C° 0 mm 5 m/s 756 mmHg 20%
    08:00 +33°C° 0 mm 5 m/s 756 mmHg 19%
    09:00 +35°C° 0 mm 5 m/s 756 mmHg 18%
    10:00 +37°C° 0 mm 4 m/s 756 mmHg 17%
    11:00 +40°C° 0 mm 4 m/s 755 mmHg 16%
    12:00 +41°C° 0 mm 4 m/s 755 mmHg 16%
    13:00 +41°C° 0 mm 4 m/s 754 mmHg 16%
    14:00 +42°C° 0 mm 5 m/s 753 mmHg 16%
    15:00 +41°C° 0 mm 5 m/s 752 mmHg 17%
    16:00 +40°C° 0 mm 5 m/s 752 mmHg 19%
    17:00 +39°C° 0 mm 5 m/s 751 mmHg 20%
    18:00 +37°C° 0 mm 5 m/s 751 mmHg 22%
    19:00 +35°C° 0 mm 5 m/s 751 mmHg 24%
    20:00 +33°C° 0 mm 4 m/s 751 mmHg 26%
    21:00 +33°C° 0 mm 5 m/s 751 mmHg 26%
    22:00 +33°C° 0 mm 5 m/s 751 mmHg 27%
    23:00 +33°C° 0 mm 5 m/s 751 mmHg 27%

    15 Décembre, Samedi

    Heure Température Précipitation Vent Pression Humidité
    00:00 +32°C° 0 mm 5 m/s 751 mmHg 29%
    01:00 +30°C° 0 mm 5 m/s 750 mmHg 31%
    02:00 +29°C° 0 mm 4 m/s 750 mmHg 33%
    03:00 +28°C° 0 mm 4 m/s 750 mmHg 32%
    04:00 +28°C° 0 mm 4 m/s 750 mmHg 31%
    05:00 +28°C° 0 mm 4 m/s 750 mmHg 29%
    06:00 +30°C° 0 mm 5 m/s 750 mmHg 26%
    07:00 +33°C° 0 mm 6 m/s 750 mmHg 22%
    08:00 +35°C° 0 mm 6 m/s 750 mmHg 19%
    09:00 +35°C° 0 mm 6 m/s 750 mmHg 22%
    10:00 +36°C° 0 mm 6 m/s 749 mmHg 25%
    11:00 +36°C° 0 mm 6 m/s 749 mmHg 28%
    12:00 +35°C° 0 mm 6 m/s 749 mmHg 31%
    13:00 +35°C° 0 mm 7 m/s 748 mmHg 33%
    14:00 +34°C° 0 mm 7 m/s 748 mmHg 35%
    15:00 +32°C° 0 mm 8 m/s 748 mmHg 42%
    16:00 +31°C° 0 mm 8 m/s 749 mmHg 48%
    17:00 +28°C° 0 mm 8 m/s 749 mmHg 54%
    18:00 +27°C° 0 mm 8 m/s 749 mmHg 60%
    19:00 +24°C° 0 mm 8 m/s 750 mmHg 66%
    20:00 +23°C° 0 mm 8 m/s 751 mmHg 71%
    21:00 +23°C° 0 mm 7 m/s 751 mmHg 71%
    22:00 +22°C° 0 mm 6 m/s 751 mmHg 72%
    23:00 +22°C° 0 mm 6 m/s 752 mmHg 72%

    16 Décembre, Dimanche

    Heure Température Précipitation Vent Pression Humidité
    00:00 +21°C° 0 mm 5 m/s 752 mmHg 72%
    01:00 +21°C° 0 mm 5 m/s 751 mmHg 72%
    02:00 +20°C° 0 mm 4 m/s 751 mmHg 73%
    03:00 +19°C° 0 mm 4 m/s 752 mmHg 74%
    04:00 +19°C° 0 mm 4 m/s 752 mmHg 76%
    05:00 +18°C° 0 mm 4 m/s 752 mmHg 77%
    06:00 +20°C° 0 mm 4 m/s 752 mmHg 72%
    07:00 +21°C° 0 mm 4 m/s 753 mmHg 68%
    08:00 +22°C° 0 mm 4 m/s 753 mmHg 63%
    09:00 +22°C° 0 mm 5 m/s 753 mmHg 63%
    10:00 +22°C° 0 mm 5 m/s 753 mmHg 62%
    11:00 +22°C° 0 mm 5 m/s 754 mmHg 61%
    12:00 +23°C° 0.1 mm 5 m/s 753 mmHg 59%
    13:00 +24°C° 0.1 mm 6 m/s 753 mmHg 57%
    14:00 +24°C° 0.1 mm 6 m/s 753 mmHg 54%
    15:00 +24°C° 0.4 mm 6 m/s 753 mmHg 56%
    16:00 +24°C° 0.4 mm 7 m/s 753 mmHg 58%
    17:00 +24°C° 0.4 mm 7 m/s 754 mmHg 59%
    18:00 +22°C° 0.4 mm 6 m/s 754 mmHg 65%
    19:00 +21°C° 0.4 mm 5 m/s 755 mmHg 71%
    20:00 +20°C° 0.4 mm 4 m/s 755 mmHg 77%
    21:00 +20°C° 0 mm 4 m/s 755 mmHg 79%
    22:00 +19°C° 0 mm 4 m/s 756 mmHg 81%
    23:00 +19°C° 0 mm 4 m/s 756 mmHg 83%

    17 Décembre, Lundi

    Heure Température Précipitation Vent Pression Humidité
    00:00 +18°C° 0 mm 4 m/s 756 mmHg 84%
    01:00 +18°C° 0 mm 4 m/s 756 mmHg 85%
    02:00 +17°C° 0 mm 4 m/s 756 mmHg 85%
    03:00 +17°C° 0 mm 4 m/s 756 mmHg 86%
    04:00 +15°C° 0 mm 4 m/s 756 mmHg 87%
    05:00 +15°C° 0 mm 4 m/s 757 mmHg 88%
    06:00 +18°C° 0 mm 4 m/s 757 mmHg 80%
    07:00 +19°C° 0 mm 4 m/s 757 mmHg 72%
    08:00 +20°C° 0 mm 5 m/s 758 mmHg 65%
    09:00 +22°C° 0 mm 5 m/s 758 mmHg 58%
    10:00 +25°C° 0 mm 5 m/s 758 mmHg 51%
    11:00 +27°C° 0 mm 6 m/s 758 mmHg 44%
    12:00 +27°C° 0 mm 6 m/s 757 mmHg 44%
    13:00 +27°C° 0 mm 6 m/s 757 mmHg 45%
    14:00 +27°C° 0 mm 6 m/s 757 mmHg 45%
    15:00 +27°C° 0 mm 6 m/s 757 mmHg 47%
    16:00 +26°C° 0 mm 7 m/s 757 mmHg 48%
    17:00 +26°C° 0 mm 7 m/s 757 mmHg 50%
    18:00 +24°C° 0 mm 6 m/s 758 mmHg 54%
    19:00 +23°C° 0 mm 6 m/s 758 mmHg 58%
    20:00 +22°C° 0 mm 5 m/s 758 mmHg 63%
    21:00 +21°C° 0 mm 5 m/s 759 mmHg 64%
    22:00 +20°C° 0 mm 5 m/s 759 mmHg 66%
    23:00 +20°C° 0 mm 5 m/s 759 mmHg 68%
    Voir plus